Location: Evansville
(37.9747°N, 87.5558°W)
Time: 19:33:30
(UTC-06:00)

Hubble Space Telescope - Pass Details

Date: 14 December 2025
Orbit: 479 x 482 km, 28.5° (Epoch: 13 January)

Event Time Altitude Azimuth Distance (km) Brightness Sun altitude
Rises 17:03:44 0° 243° (WSW) 2,525 7.0 -6.5°
Reaches altitude 10° 17:06:22 10° 225° (SW) 1,646 4.6 -6.9°
Maximum altitude 17:09:08 19° 178° (S) 1,185 2.8 -7.4°
Drops below altitude 10° 17:11:53 10° 131° (SE) 1,646 3.0 -7.9°
Enters shadow 17:14:11 - 115° (ESE) 2,401 3.7 -8.4°
